Date String (YYYY-MM-DD hh:mm:ss) UTC,Instrument flags,absolute air pressure of the measurement (hPa),sample flow rate (lpm),inlet stack bypass flow (lpm),air temperature of the measurement (°C),ambient temperature measured by the external sensor (°C),aerosol sample conditioner tube jacket temperature (°C),OPC LED temperature (°C),internal box temperature (°C),relative humidity of the measurement (%),span deviation,mass concentration of particles derived from Lorenz-Mie calculation of OPC scattering (μg/m³),mass concentration of particles derived from Lorenz-Mie calculation of OPC scattering (μg/m³),mass concentration of particles derived from Lorenz-Mie calculation of OPC scattering (μg/m³)
DateTimeUTC,F1_M11,P_M11,Q1_M11,Q2_M11,T1_M11,T2_M11,T3_M11,T4_M11,T5_M11,U1_M11,ZSPAN_M11,X0_M11,X2_M11,X1_M11
2024-02-23 07:00:00,SystemResetWarning,0832.0,5.00,000.00,020.4,019.8,000.0,028.9,022.3,12.6,0000.0,0001.51,0000.90,0000.66
2024-02-23 07:01:00,SystemResetWarning,0832.1,5.00,000.00,020.4,019.8,000.0,028.9,022.2,12.9,0000.0,0001.36,0000.85,0000.65
2024-02-23 07:02:00,SystemResetWarning,0832.1,4.99,000.00,020.4,019.8,000.0,028.9,022.2,12.9,0000.0,0002.22,0000.82,0000.64
2024-02-23 07:03:00,SystemResetWarning,0832.0,5.00,000.00,020.4,019.8,000.0,028.9,022.2,12.6,0000.0,0002.32,0000.81,0000.64
2024-02-23 07:04:00,SystemResetWarning,0832.1,5.00,000.00,020.4,019.8,000.0,028.9,022.2,12.4,0000.0,0002.27,0000.78,0000.63
2024-02-23 07:05:00,SystemResetWarning,0832.1,5.02,000.00,020.4,019.8,000.0,028.9,022.2,12.2,0000.0,0002.25,0000.77,0000.63
2024-02-23 07:06:00,SystemResetWarning,0832.0,5.00,000.00,020.4,019.8,000.0,028.9,022.2,12.0,0000.0,0002.24,0000.76,0000.62
2024-02-23 07:07:00,SystemResetWarning,0832.1,4.99,000.00,020.4,019.8,000.0,028.9,022.2,11.8,0000.0,0002.28,0000.76,0000.60
2024-02-23 07:08:00,SystemResetWarning,0832.1,5.00,000.00,020.4,019.8,000.0,028.9,022.2,12.1,0000.0,0002.30,0000.74,0000.59
2024-02-23 07:09:00,SystemResetWarning,0832.2,5.00,000.00,020.4,019.8,000.0,028.9,022.2,12.2,0000.0,0002.36,0000.75,0000.59
2024-02-23 07:10:00,SystemResetWarning,0832.2,5.00,000.00,020.4,019.8,000.0,028.9,022.2,12.4,0000.0,0002.46,0000.78,0000.59
2024-02-23 07:11:00,SystemResetWarning,0832.2,5.00,000.00,020.4,019.7,000.0,028.9,022.2,12.6,0000.0,0002.49,0000.79,0000.59
2024-02-23 07:12:00,SystemResetWarning,0832.3,5.00,000.00,020.4,019.7,000.0,028.9,022.2,12.1,0000.0,0002.51,0000.80,0000.59
2024-02-23 07:13:00,SystemResetWarning,0832.3,5.00,000.00,020.4,019.7,000.0,028.8,022.2,12.1,0000.0,0001.45,0000.80,0000.59
2024-02-23 07:14:00,SystemResetWarning,0832.3,5.00,000.00,020.4,019.7,000.0,028.8,022.2,12.1,0000.0,0001.52,0000.81,0000.60
2024-02-23 07:15:00,SystemResetWarning,0832.3,5.01,000.00,020.3,019.7,000.0,028.8,022.2,12.1,0000.0,0001.51,0000.81,0000.60
2024-02-23 07:16:00,SystemResetWarning,0832.3,5.00,000.00,020.3,019.7,000.0,028.8,022.2,12.2,0000.0,0001.58,0000.82,0000.60
2024-02-23 07:17:00,SystemResetWarning,0832.3,5.00,000.00,020.3,019.7,000.0,028.8,022.2,12.0,0000.0,0002.33,0000.86,0000.61
2024-02-23 07:18:00,SystemResetWarning,0832.2,5.00,000.00,020.3,019.7,000.0,028.8,022.2,12.2,0000.0,0002.32,0000.87,0000.61
2024-02-23 07:19:00,SystemResetWarning,0832.2,5.01,000.00,020.3,019.7,000.0,028.8,022.2,12.2,0000.0,0002.27,0000.86,0000.61
2024-02-23 07:20:00,SystemResetWarning,0832.3,5.01,000.00,020.3,019.7,000.0,028.8,022.2,12.0,0000.0,0002.17,0000.83,0000.61
2024-02-23 07:21:00,SystemResetWarning,0832.3,5.00,000.00,020.3,019.7,000.0,028.8,022.2,12.0,0000.0,0002.08,0000.81,0000.61
2024-02-23 07:22:00,SystemResetWarning,0832.2,4.99,000.00,020.3,019.7,000.0,028.8,022.2,11.8,0000.0,0002.07,0000.80,0000.61
2024-02-23 07:23:00,SystemResetWarning,0832.2,4.99,000.00,020.3,019.7,000.0,028.8,022.1,11.7,0000.0,0002.05,0000.79,0000.60
2024-02-23 07:24:00,SystemResetWarning,0832.2,5.00,000.00,020.3,019.7,000.0,028.8,022.1,11.2,0000.0,0001.99,0000.76,0000.59
2024-02-23 07:25:00,SystemResetWarning,0832.2,5.00,000.00,020.3,019.7,000.0,028.8,022.1,11.0,0000.0,0001.82,0000.74,0000.58
2024-02-23 07:26:00,SystemResetWarning,0832.2,5.00,000.00,020.3,019.7,000.0,028.8,022.1,11.3,0000.0,0002.01,0000.71,0000.57
2024-02-23 07:27:00,SystemResetWarning,0832.2,5.00,000.00,020.3,019.7,000.0,028.8,022.1,11.5,0000.0,0002.03,0000.69,0000.57
2024-02-23 07:28:00,SystemResetWarning,0832.2,5.00,000.00,020.3,019.7,000.0,028.8,022.1,11.6,0000.0,0001.28,0000.65,0000.56
2024-02-23 07:29:00,SystemResetWarning,0832.2,5.00,000.00,020.3,019.7,000.0,028.8,022.1,11.1,0000.0,0001.25,0000.64,0000.56
2024-02-23 07:30:00,SystemResetWarning,0832.2,4.99,000.00,020.3,019.7,000.0,028.8,022.1,10.8,0000.0,0001.22,0000.63,0000.56
2024-02-23 07:31:00,SystemResetWarning,0832.1,5.00,000.00,020.3,019.7,000.0,028.8,022.1,10.6,0000.0,0001.24,0000.64,0000.56
2024-02-23 07:32:00,SystemResetWarning,0832.0,5.00,000.00,020.3,019.7,000.0,028.8,022.0,10.4,0000.0,0001.25,0000.64,0000.55
2024-02-23 07:33:00,SystemResetWarning,0832.0,5.00,000.00,020.3,019.7,000.0,028.7,022.1,10.6,0000.0,0001.25,0000.64,0000.55
2024-02-23 07:34:00,SystemResetWarning,0832.0,5.00,000.00,020.3,019.6,000.0,028.7,022.0,10.6,0000.0,0001.24,0000.63,0000.54
2024-02-23 07:35:00,SystemResetWarning,0832.0,5.01,000.00,020.3,019.6,000.0,028.7,022.0,10.7,0000.0,0001.28,0000.65,0000.55
2024-02-23 07:36:00,SystemResetWarning,0832.0,5.00,000.00,020.2,019.5,000.0,028.7,021.9,10.8,0000.0,0001.29,0000.65,0000.55
2024-02-23 07:37:00,SystemResetWarning,0832.1,5.00,000.00,020.2,019.5,000.0,028.7,021.9,11.0,0000.0,0001.04,0000.65,0000.55
2024-02-23 07:38:00,SystemResetWarning,0832.1,5.00,000.00,020.2,019.5,000.0,028.7,021.9,10.9,0000.0,0001.03,0000.68,0000.55
2024-02-23 07:39:00,SystemResetWarning,0832.1,5.01,000.00,020.2,019.4,000.0,028.6,021.9,10.4,0000.0,0000.94,0000.66,0000.55
2024-02-23 07:40:00,SystemResetWarning,0832.2,5.00,000.00,020.2,019.4,000.0,028.6,021.9,10.6,0000.0,0000.92,0000.65,0000.55
2024-02-23 07:41:00,SystemResetWarning,0832.2,5.00,000.00,020.2,019.4,000.0,028.6,021.8,10.9,0000.0,0000.92,0000.65,0000.54
2024-02-23 07:42:00,SystemResetWarning,0832.2,5.00,000.00,020.1,019.4,000.0,028.6,021.8,10.9,0000.0,0000.89,0000.62,0000.53
2024-02-23 07:43:00,SystemResetWarning,0832.2,5.00,000.00,020.1,019.4,000.0,028.6,021.8,11.1,0000.0,0000.85,0000.61,0000.53
2024-02-23 07:44:00,SystemResetWarning,0832.2,5.00,000.00,020.1,019.4,000.0,028.6,021.8,11.3,0000.0,0000.82,0000.60,0000.53
2024-02-23 07:45:00,SystemResetWarning,0832.2,5.00,000.00,020.1,019.4,000.0,028.5,021.8,11.3,0000.0,0000.81,0000.59,0000.52
2024-02-23 07:46:00,SystemResetWarning,0832.2,5.00,000.00,020.1,019.4,000.0,028.5,021.8,11.4,0000.0,0000.77,0000.58,0000.52
2024-02-23 07:47:00,SystemResetWarning,0832.1,5.00,000.00,020.1,019.3,000.0,028.5,021.7,11.1,0000.0,0000.73,0000.56,0000.51
2024-02-23 07:48:00,SystemResetWarning,0832.1,5.00,000.00,020.0,019.3,000.0,028.5,021.7,11.2,0000.0,0000.69,0000.54,0000.51
2024-02-23 07:49:00,SystemResetWarning,0832.1,5.00,000.00,020.0,019.3,000.0,028.5,021.7,11.7,0000.0,0000.63,0000.51,0000.49
2024-02-23 07:50:00,SystemResetWarning,0832.2,5.00,000.00,020.0,019.3,000.0,028.5,021.7,11.9,0000.0,0000.62,0000.50,0000.49
2024-02-23 07:51:00,SystemResetWarning,0832.2,4.99,000.00,020.0,019.3,000.0,028.5,021.7,12.4,0000.0,0000.65,0000.51,0000.49
2024-02-23 07:52:00,SystemResetWarning,0832.1,5.00,000.00,020.0,019.3,000.0,028.5,021.7,12.7,0000.0,0000.65,0000.51,0000.49
2024-02-23 07:53:00,SystemResetWarning,0832.1,5.00,000.00,020.0,019.3,000.0,028.4,021.7,12.8,0000.0,0000.64,0000.51,0000.49
2024-02-23 07:54:00,SystemResetWarning,0832.0,5.00,000.00,020.0,019.3,000.0,028.4,021.7,12.8,0000.0,0000.65,0000.51,0000.49
2024-02-23 07:55:00,SystemResetWarning,0832.0,5.00,000.00,020.0,019.3,000.0,028.4,021.7,12.6,0000.0,0000.66,0000.51,0000.48
2024-02-23 07:56:00,SystemResetWarning,0832.1,5.00,000.00,020.0,019.3,000.0,028.4,021.6,12.8,0000.0,0000.83,0000.51,0000.48
2024-02-23 07:57:00,SystemResetWarning,0832.0,5.00,000.00,019.9,019.3,000.0,028.4,021.7,12.9,0000.0,0001.41,0000.52,0000.48
2024-02-23 07:58:00,SystemResetWarning,0832.0,4.99,000.00,019.9,019.3,000.0,028.4,021.7,12.9,0000.0,0001.41,0000.52,0000.48
2024-02-23 07:59:00,SystemResetWarning,0832.0,5.00,000.00,019.9,019.3,000.0,028.4,021.6,12.8,0000.0,0001.43,0000.53,0000.48
